Wind_Speed
2 2 2 2 2 3 3 3 3 3 4 4 5 5 5 5 5 5 6 6 6 6 6 7 8 8 9 9 9 9 9 9 10 10 10 10 9 9 9 9 9 9 9
3 2 2 2 3 3 2 3 3 3 4 4 4 5 5 5 6 7 7 7 7 7 7 7 8 9 9 9 10 10 10 9 10 10 10 10 9 9 9 8 8 8 9
3 3 3 3 3 3 2 3 3 4 4 4 4 5 6 6 7 7 8 8 8 8 7 7 8 9 9 9 9 10 10 10 10 10 10 10 9 9 9 8 8 8 8
3 3 4 3 3 2 2 3 3 4 4 5 5 6 6 6 7 7 8 9 9 8 8 8 9 10 10 10 10 10 11 11 11 10 10 11 10 10 9 9 9 9 9
3 3 4 3 2 2 2 3 4 4 5 5 6 5 5 6 6 7 8 8 9 9 9 9 9 10 10 10 10 10 11 11 11 11 11 11 11 10 10 10 10 9 9
4 4 4 3 3 3 3 4 4 4 4 5 5 5 5 6 6 7 7 7 7 8 9 9 10 10 10 10 10 11 11 11 11 11 11 11 11 11 10 10 10 10 9
5 5 4 4 3 3 3 4 4 4 5 5 5 5 5 6 6 7 7 7 7 8 9 9 9 10 10 10 11 11 11 11 11 11 11 11 11 11 11 11 11 10 10
5 5 4 3 3 3 3 4 4 4 4 4 4 5 5 6 6 6 7 7 7 7 8 9 9 9 10 10 11 11 11 11 11 11 11 11 11 11 11 11 10 10 10
5 4 3 3 3 3 3 3 3 3 3 4 4 4 5 6 6 6 6 6 6 6 6 7 8 8 9 10 10 11 11 12 12 12 11 11 11 11 11 11 10 10 10
5 3 3 3 2 2 3 2 2 3 4 4 4 5 5 6 6 6 5 5 5 5 5 5 6 6 7 8 9 9 10 11 11 11 11 11 11 11 11 11 11 10 10
4 3 3 3 3 2 2 1 2 3 4 4 4 5 6 6 6 5 4 4 4 4 4 4 5 5 6 7 8 8 9 10 11 10 10 10 10 10 10 10 10 10 10
4 4 4 3 2 2 1 1 1 2 3 4 4 5 6 6 6 5 4 4 3 3 4 4 4 5 6 7 7 8 8 9 9 9 10 10 10 10 10 10 10 10 10
4 4 3 3 3 2 1 1 1 2 3 4 5 5 6 6 6 5 5 4 3 3 2 3 4 4 5 6 7 7 8 8 8 9 9 9 9 10 10 10 10 10 10
4 4 4 4 4 3 1 0 0 2 3 4 5 6 6 6 6 6 6 5 4 3 1 0 2 4 4 5 6 7 7 7 7 8 9 9 9 9 9 9 9 9 9
4 4 4 4 4 3 2 1 0 2 3 4 5 6 6 6 6 6 6 5 5 3 2 1 1 2 3 5 5 6 6 6 7 7 7 8 8 8 8 8 8 8 9
4 4 4 3 3 3 2 2 1 2 3 4 4 5 6 6 7 7 7 7 6 5 4 3 2 3 3 4 4 5 5 5 6 6 7 7 7 7 7 7 7 8 8
3 4 4 3 3 3 3 3 2 1 2 3 4 5 6 6 7 7 7 7 6 6 5 3 3 3 4 4 4 4 4 5 5 5 5 5 6 6 6 6 6 7 8
4 4 4 4 4 4 4 3 3 2 3 4 5 6 6 7 7 7 8 7 7 6 6 5 5 5 5 5 5 4 4 4 4 4 5 5 5 5 6 5 6 6 7
4 4 5 5 5 4 4 3 3 3 3 4 5 6 7 8 8 8 8 7 7 7 6 6 5 5 6 6 6 5 5 4 4 4 4 4 4 5 5 5 5 5 6
4 4 5 6 5 5 5 4 3 3 3 4 5 6 7 7 8 8 8 8 8 7 7 7 7 6 6 6 6 6 6 5 5 4 4 4 3 3 3 3 3 3 4
5 4 5 7 6 6 5 4 4 3 3 4 5 6 7 7 8 9 9 9 8 8 8 8 8 7 7 6 7 7 7 6 6 5 5 4 3 3 2 3 2 2 3
6 5 6 7 7 6 6 5 4 3 3 4 5 6 7 7 8 8 8 8 8 8 8 8 8 7 7 7 7 7 6 5 5 5 5 4 4 3 2 3 3 3 3
7 6 6 7 7 6 6 5 4 3 3 3 4 5 6 6 7 7 8 8 8 8 8 8 8 8 7 7 7 6 6 5 5 5 4 3 3 3 2 2 2 2 1
8 8 6 7 7 7 6 6 5 4 3 3 3 5 6 6 7 7 8 8 8 8 8 8 8 7 7 6 6 6 5 5 5 5 4 3 3 3 3 2 2 1 1
9 9 8 8 8 7 7 7 6 4 3 3 3 4 5 6 7 7 7 7 7 7 7 7 8 7 7 6 6 5 5 5 5 5 4 4 3 3 2 2 2 1 0
9 10 9 8 8 8 7 7 6 5 3 3 3 3 4 5 6 6 6 7 7 7 7 7 7 7 6 5 5 5 5 4 4 4 4 4 3 3 2 2 2 1 1
Wind_Direction
347 11 4 357 340 322 321 326 315 296 293 297 293 292 291 281 273 270 266 263 258 256 255 249 241 236 230 227 227 226 223 220 220 219 218 217 217 216 214 211 213 208 201
311 329 337 330 325 325 324 329 308 294 296 301 297 292 286 276 273 271 268 265 261 261 256 249 242 237 233 233 231 229 226 224 222 220 220 220 219 220 219 214 213 208 204
301 313 320 318 321 323 313 308 312 299 302 308 300 288 280 275 273 272 271 268 266 261 257 252 245 240 237 236 233 230 227 227 225 221 221 221 220 221 221 218 214 209 208
296 306 311 306 304 301 311 314 320 313 309 307 300 289 281 275 274 276 273 268 262 260 257 252 248 244 240 238 235 232 230 228 224 224 225 222 223 223 223 220 217 215 216
300 300 301 292 280 282 307 315 314 312 309 302 299 293 285 280 277 275 274 268 261 259 257 252 248 244 239 236 235 231 229 227 225 227 227 224 224 224 224 223 221 221 221
292 295 297 290 269 265 290 307 309 307 303 300 301 295 288 287 281 277 274 271 266 261 259 252 249 244 240 234 233 231 229 227 227 227 229 226 224 225 226 225 224 223 222
286 284 290 293 274 269 275 295 306 304 305 304 305 304 302 299 293 284 279 275 271 267 261 256 252 246 241 234 233 231 229 227 225 226 228 226 225 227 227 225 224 225 226
288 284 291 283 275 268 280 286 300 309 308 309 313 314 312 306 302 293 288 281 277 276 266 256 251 248 242 235 231 228 228 226 224 224 225 225 226 224 225 225 225 226 228
283 281 275 273 276 288 283 289 306 321 325 321 322 327 327 321 315 305 299 288 284 279 269 256 252 247 239 234 229 227 227 225 223 225 225 224 224 223 224 224 226 229 230
272 266 268 269 270 271 269 281 327 336 333 338 341 342 336 328 322 312 304 296 288 280 273 257 248 244 236 230 225 222 220 221 220 224 225 223 222 222 223 225 225 228 231
261 260 271 267 270 257 249 289 338 341 344 351 351 346 339 335 333 325 316 312 294 280 278 260 248 240 233 227 224 220 218 219 219 221 224 223 222 222 223 225 226 229 232
250 248 259 255 273 261 254 241 342 354 357 358 353 351 348 349 346 341 338 325 308 288 282 262 241 232 228 226 223 222 219 219 220 220 223 224 224 221 223 226 229 233 234
241 244 246 243 246 235 224 216 284 342 358 4 358 357 357 358 356 354 357 350 332 315 298 256 234 220 217 221 223 222 218 219 219 219 219 220 223 221 222 227 231 234 235
239 245 245 244 236 211 197 213 282 349 0 4 7 6 4 7 6 10 11 4 358 355 351 243 208 205 202 209 212 211 211 212 212 213 214 218 219 221 223 226 230 234 236
234 233 235 231 215 192 182 181 198 21 14 7 10 13 15 18 16 18 16 16 19 33 54 77 122 173 180 187 193 199 204 204 207 207 209 214 215 218 223 225 228 232 238
227 223 215 206 196 179 172 189 138 60 36 15 15 23 22 24 23 24 23 26 35 44 55 74 99 119 137 159 174 186 192 193 197 201 205 209 213 217 219 224 227 231 237
220 213 205 195 187 177 169 154 128 95 38 27 28 28 27 27 25 27 29 35 41 48 57 77 96 103 118 136 149 161 172 176 187 195 200 201 204 208 214 223 231 233 236
217 210 201 194 186 175 168 152 122 93 57 40 38 37 34 34 33 35 37 42 48 56 68 83 91 102 114 122 133 148 154 161 171 182 188 191 194 205 211 222 228 231 234
209 207 197 192 184 181 169 138 108 88 63 51 47 43 42 41 41 44 46 50 54 61 71 85 96 102 108 113 118 125 134 139 139 157 167 173 181 192 206 216 222 230 230
204 206 197 186 178 170 163 140 118 96 70 58 51 49 45 45 49 50 52 54 60 67 76 85 95 103 107 110 113 109 113 114 114 123 134 145 158 172 192 207 214 222 215
200 198 188 187 184 170 165 154 132 111 83 67 58 52 50 53 55 54 56 61 66 73 80 85 89 95 103 105 106 107 105 102 103 103 108 119 136 154 172 182 191 194 199
197 195 187 184 181 176 169 152 134 116 91 74 61 55 54 61 64 61 62 67 71 76 79 83 87 90 100 103 105 107 103 103 103 102 105 105 113 132 158 178 175 188 197
197 195 188 184 182 177 173 160 144 125 105 83 67 62 61 65 68 67 66 71 77 78 79 82 86 92 101 105 103 101 98 97 100 100 106 104 99 106 110 142 141 151 178
199 196 192 182 182 186 184 174 164 146 127 102 76 69 69 72 73 74 75 77 79 79 79 79 83 92 101 107 107 103 98 95 94 98 96 90 88 87 91 106 98 118 143
197 197 197 190 188 189 187 181 175 158 140 121 99 84 85 83 80 80 80 81 81 81 82 82 82 90 100 107 110 108 99 92 89 86 79 82 82 74 79 93 92 102 60
197 199 200 198 195 191 190 184 178 163 150 139 125 110 102 93 86 83 81 82 83 83 83 87 88 91 98 103 109 109 99 89 81 73 73 77 73 67 65 56 54 62 9
Height
5892 5891 5891 5891 5890 5890 5890 5889 5889 5888 5888 5888 5887 5886 5885 5885 5884 5884 5884 5884 5883 5883 5883 5883 5883 5883 5884 5885 5885 5886 5887 5887 5888 5889 5889 5890 5891 5892 5893 5893 5894 5894 5895
5891 5891 5891 5890 5890 5889 5889 5889 5888 5888 5887 5887 5886 5885 5884 5884 5883 5883 5882 5882 5882 5882 5881 5881 5881 5882 5882 5883 5884 5884 5885 5886 5887 5887 5888 5889 5890 5891 5892 5892 5893 5894 5895
5891 5890 5890 5890 5889 5889 5889 5888 5888 5887 5887 5886 5885 5884 5883 5883 5882 5882 5881 5880 5880 5880 5880 5879 5880 5880 5880 5881 5882 5883 5884 5885 5885 5886 5887 5888 5889 5890 5891 5892 5892 5893 5894
5890 5890 5889 5889 5888 5888 5888 5888 5887 5887 5886 5885 5884 5883 5882 5881 5881 5880 5879 5879 5879 5878 5878 5878 5878 5878 5878 5879 5880 5881 5882 5883 5884 5885 5886 5887 5888 5889 5890 5891 5892 5893 5894
5889 5889 5889 5888 5888 5887 5887 5887 5886 5886 5885 5884 5883 5882 5881 5880 5879 5879 5878 5877 5877 5876 5876 5876 5876 5876 5877 5877 5878 5879 5880 5881 5883 5884 5885 5886 5887 5888 5889 5890 5891 5892 5893
5889 5888 5888 5887 5887 5887 5886 5886 5885 5885 5884 5883 5882 5881 5880 5879 5878 5877 5876 5876 5875 5874 5874 5873 5874 5874 5874 5875 5876 5877 5878 5879 5881 5882 5883 5884 5886 5887 5888 5889 5890 5891 5892
5887 5887 5887 5886 5886 5886 5885 5885 5884 5883 5882 5881 5880 5879 5878 5877 5876 5875 5875 5874 5873 5872 5872 5871 5871 5872 5872 5873 5874 5875 5876 5878 5879 5880 5881 5883 5884 5885 5886 5887 5889 5890 5891
5886 5886 5886 5885 5885 5885 5884 5884 5883 5882 5881 5880 5879 5878 5877 5876 5875 5874 5873 5872 5871 5870 5869 5869 5869 5869 5870 5871 5872 5873 5875 5876 5877 5878 5880 5881 5882 5883 5885 5886 5887 5888 5889
5885 5885 5885 5884 5884 5884 5883 5883 5882 5882 5880 5879 5878 5877 5876 5875 5873 5872 5871 5870 5869 5868 5867 5867 5867 5867 5868 5869 5870 5871 5873 5874 5875 5877 5878 5879 5881 5882 5883 5885 5886 5887 5888
5884 5884 5884 5883 5883 5882 5882 5882 5881 5881 5880 5878 5877 5876 5875 5874 5872 5870 5869 5868 5867 5866 5866 5865 5866 5866 5866 5867 5868 5869 5871 5872 5874 5875 5876 5878 5879 5880 5882 5883 5885 5886 5887
5883 5883 5883 5882 5882 5882 5881 5881 5881 5880 5879 5878 5877 5876 5874 5873 5871 5869 5868 5867 5865 5865 5864 5864 5864 5864 5865 5866 5867 5868 5869 5870 5872 5874 5875 5876 5878 5879 5880 5882 5883 5884 5885
5882 5882 5881 5881 5881 5881 5880 5880 5880 5880 5879 5878 5876 5875 5873 5872 5870 5868 5867 5865 5864 5863 5863 5862 5862 5863 5863 5864 5865 5866 5868 5869 5871 5872 5874 5875 5876 5878 5879 5880 5882 5883 5884
5880 5880 5881 5880 5880 5880 5880 5880 5880 5879 5879 5877 5876 5874 5873 5871 5869 5868 5866 5864 5863 5862 5861 5861 5861 5861 5862 5863 5864 5865 5867 5868 5869 5871 5872 5874 5875 5876 5878 5879 5880 5881 5882
5879 5879 5879 5879 5879 5879 5879 5879 5879 5879 5878 5877 5876 5874 5873 5871 5869 5867 5865 5864 5862 5861 5860 5860 5860 5860 5861 5862 5863 5864 5865 5867 5868 5870 5871 5872 5874 5875 5876 5878 5879 5880 5881
5877 5878 5878 5878 5879 5878 5879 5879 5879 5878 5877 5877 5875 5874 5872 5870 5869 5867 5865 5863 5862 5861 5860 5860 5860 5859 5860 5861 5862 5863 5865 5866 5867 5869 5870 5871 5873 5874 5875 5876 5877 5878 5879
5876 5877 5877 5877 5878 5878 5878 5878 5878 5878 5877 5876 5875 5874 5872 5870 5868 5867 5865 5863 5862 5860 5860 5860 5860 5860 5860 5861 5862 5863 5864 5865 5867 5868 5869 5870 5872 5873 5874 5875 5876 5877 5877
5875 5876 5876 5876 5877 5877 5877 5878 5878 5877 5877 5876 5875 5873 5872 5870 5868 5867 5865 5864 5862 5861 5860 5860 5860 5860 5861 5861 5862 5863 5864 5865 5866 5867 5868 5870 5871 5872 5873 5874 5875 5875 5876
5874 5875 5875 5875 5876 5876 5877 5877 5877 5877 5877 5876 5875 5873 5872 5870 5868 5867 5866 5864 5863 5862 5861 5861 5861 5861 5861 5862 5863 5863 5864 5865 5866 5867 5868 5869 5870 5871 5872 5873 5873 5874 5874
5873 5874 5874 5875 5875 5876 5876 5877 5877 5877 5876 5876 5875 5873 5872 5870 5869 5867 5866 5865 5864 5863 5862 5862 5862 5862 5863 5863 5864 5864 5865 5866 5867 5867 5868 5869 5870 5870 5871 5872 5873 5873 5873
5872 5873 5873 5874 5875 5875 5876 5876 5877 5877 5876 5876 5875 5874 5872 5871 5869 5868 5867 5866 5865 5864 5864 5863 5863 5864 5864 5864 5865 5865 5866 5867 5867 5868 5868 5869 5870 5870 5871 5872 5872 5872 5872
5871 5872 5872 5874 5874 5875 5876 5876 5877 5877 5877 5876 5875 5874 5873 5871 5870 5869 5868 5867 5867 5866 5865 5865 5865 5865 5866 5866 5867 5867 5868 5868 5868 5868 5869 5869 5870 5871 5871 5871 5872 5872 5872
5870 5871 5872 5873 5874 5875 5876 5876 5877 5877 5877 5876 5875 5874 5873 5872 5871 5870 5869 5869 5868 5868 5867 5867 5867 5867 5867 5868 5868 5869 5869 5870 5869 5870 5870 5870 5871 5871 5871 5871 5871 5871 5872
5869 5871 5871 5872 5873 5874 5875 5876 5876 5877 5877 5877 5876 5875 5874 5873 5872 5871 5871 5870 5870 5870 5869 5869 5869 5869 5869 5870 5870 5870 5870 5870 5870 5871 5871 5871 5871 5871 5871 5871 5871 5871 5871
5868 5870 5871 5872 5873 5874 5875 5876 5876 5877 5877 5877 5877 5876 5875 5874 5873 5873 5872 5872 5872 5871 5871 5870 5870 5870 5870 5871 5871 5871 5872 5872 5872 5872 5872 5872 5871 5871 5871 5871 5871 5871 5871
5867 5869 5870 5871 5872 5873 5874 5875 5876 5877 5877 5877 5877 5877 5876 5876 5875 5874 5874 5873 5873 5873 5872 5872 5872 5872 5872 5872 5872 5873 5873 5873 5873 5873 5873 5872 5872 5872 5871 5871 5871 5871 5871
5866 5867 5869 5870 5872 5873 5874 5875 5876 5876 5877 5877 5877 5877 5877 5877 5876 5876 5875 5875 5874 5874 5874 5874 5873 5873 5873 5874 5874 5874 5874 5874 5874 5874 5874 5873 5873 5872 5872 5871 5871 5870 5870